This is the latest recevied weather packets stored in our database for station/object IN3XSV. If no packets are shown the sender has not sent any weather packets the latest 10 day(s).
| Time | Temp. | Humidity | Pressure | Rain* | Wind** | Luminosity | Snow |
|---|---|---|---|---|---|---|---|
| 1776937751 | 13.89° C | 52% | 1015.4 hPa | 0 mm | - | - | - |
| 1776937484 | 13.89° C | 52% | 1015.6 hPa | 0 mm | - | - | - |
| 1776937452 | 13.89° C | 52% | 1015.6 hPa | 0 mm | - | - | - |
| 1776937151 | 13.89° C | 55% | 1015.8 hPa | 0 mm | - | - | - |
| 1776936851 | 13.33° C | 55% | 1015.9 hPa | 0 mm | - | - | - |
| 1776936551 | 13.33° C | 56% | 1016 hPa | 0 mm | - | - | - |
| 1776936282 | 13.33° C | 56% | 1016 hPa | 0 mm | - | - | - |
| 1776936251 | 13.33° C | 56% | 1016 hPa | 0 mm | - | - | - |
| 1776935952 | 12.78° C | 56% | 1016.1 hPa | 0 mm | - | - | - |
| 1776935651 | 12.78° C | 57% | 1016 hPa | 0 mm | - | - | - |
| 1776935351 | 12.78° C | 58% | 1016.3 hPa | 0 mm | - | - | - |
| 1776935051 | 12.22° C | 56% | 1016.3 hPa | 0 mm | - | - | - |
| 1776934751 | 12.22° C | 57% | 1016.5 hPa | 0 mm | - | - | - |
| 1776934451 | 12.22° C | 59% | 1016.4 hPa | 0 mm | - | - | - |
| 1776934151 | 11.67° C | 59% | 1016.5 hPa | 0 mm | - | - | - |
| 1776933851 | 11.67° C | 61% | 1016.5 hPa | 0 mm | - | - | - |
| 1776933551 | 11.67° C | 60% | 1016.6 hPa | 0 mm | - | - | - |
| 1776933251 | 11.11° C | 60% | 1016.6 hPa | 0 mm | - | - | - |
| 1776932951 | 11.11° C | 63% | 1016.7 hPa | 0 mm | - | - | - |
| 1776932651 | 11.11° C | 63% | 1016.8 hPa | 0 mm | - | - | - |
| 1776932351 | 11.11° C | 66% | 1017 hPa | 0 mm | - | - | - |
| 1776932051 | 10.56° C | 66% | 1016.9 hPa | 0 mm | - | - | - |
| 1776931751 | 10.56° C | 66% | 1017.1 hPa | 0 mm | - | - | - |
| 1776931451 | 10.56° C | 67% | 1017.2 hPa | 0 mm | - | - | - |
| 1776931151 | 10° C | 67% | 1017.2 hPa | 0 mm | - | - | - |
* Rain latest hour (hover to see other rain measurements)
** Current wind speed in m/s (hover to see current wind gust speed)